| time (UTC) | temp F | wind direction | speed MPH | gust MPH | rain 1hr in | rain 24hr in | rain mn in | humidity % | barometer mb |
| 20260506171544 | 58 | 179 | 6.0 | 22.0 | 0.00 | 0.00 | 0.00 | 85 | 1010.6 |
| 20260506170043 | 59 | 211 | 6.0 | 21.0 | 0.00 | 0.00 | 0.00 | 82 | 1010.6 |
| 20260506164547 | 59 | 196 | 7.0 | 27.0 | 0.00 | 0.00 | 0.00 | 83 | 1010.7 |
| 20260506163056 | 59 | 157 | 5.0 | 25.0 | 0.00 | 0.00 | 0.00 | 83 | 1010.6 |
| 20260506161544 | 59 | 195 | 6.0 | 20.0 | 0.00 | 0.00 | 0.00 | 81 | 1010.7 |
| 20260506160045 | 60 | 174 | 12.0 | 24.0 | 0.00 | 0.00 | 0.00 | 80 | 1011.0 |
| 20260506154552 | 61 | 0 | 7.0 | 23.0 | 0.00 | 0.00 | 0.00 | 80 | 1011.3 |
| 20260506153040 | 61 | 181 | 9.0 | 23.0 | 0.00 | 0.00 | 0.00 | 81 | 1011.4 |
| 20260506151547 | 61 | 240 | 8.0 | 20.0 | 0.00 | 0.00 | 0.00 | 81 | 1011.1 |
| 20260506150045 | 61 | 171 | 5.0 | 18.0 | 0.00 | 0.00 | 0.00 | 80 | 1011.4 |
| 20260506144542 | 62 | 207 | 3.0 | 18.0 | 0.00 | 0.00 | 0.00 | 79 | 1011.7 |
| 20260506143042 | 62 | 202 | 6.0 | 20.0 | 0.00 | 0.00 | 0.00 | 80 | 1011.7 |
| 20260506141545 | 61 | 226 | 7.0 | 22.0 | 0.00 | 0.00 | 0.00 | 82 | 1011.8 |
| 20260506140041 | 60 | 233 | 10.0 | 22.0 | 0.00 | 0.00 | 0.00 | 81 | 1012.0 |
| 20260506134545 | 60 | 289 | 4.0 | 16.0 | 0.00 | 0.00 | 0.00 | 83 | 1012.0 |
| 20260506133047 | 59 | 171 | 4.0 | 17.0 | 0.00 | 0.00 | 0.00 | 84 | 1012.0 |
| 20260506131542 | 59 | 196 | 7.0 | 31.0 | 0.00 | 0.00 | 0.00 | 84 | 1011.8 |
| 20260506130041 | 59 | 218 | 6.0 | 18.0 | 0.00 | 0.00 | 0.00 | 85 | 1011.8 |
| 20260506124548 | 58 | 179 | 7.0 | 20.0 | 0.00 | 0.00 | 0.00 | 86 | 1012.0 |
| 20260506123041 | 58 | 177 | 9.0 | 25.0 | 0.00 | 0.00 | 0.00 | 87 | 1012.1 |
| 20260506121553 | 57 | 190 | 4.0 | 19.0 | 0.00 | 0.00 | 0.00 | 88 | 1011.9 |
| 20260506120044 | 56 | 203 | 8.0 | 23.0 | 0.00 | 0.00 | 0.00 | 89 | 1011.7 |
| 20260506114542 | 55 | 0 | 7.0 | 24.0 | 0.00 | 0.00 | 0.00 | 90 | 1011.8 |
| 20260506113041 | 55 | 200 | 7.0 | 18.0 | 0.00 | 0.00 | 0.00 | 90 | 1011.9 |
| 20260506111547 | 55 | 0 | 7.0 | 21.0 | 0.00 | 0.00 | 0.00 | 90 | 1011.9 |
| 20260506110045 | 55 | 198 | 7.0 | 20.0 | 0.00 | 0.00 | 0.00 | 91 | 1011.9 |
| 20260506104547 | 54 | 200 | 6.0 | 18.0 | 0.00 | 0.00 | 0.00 | 91 | 1011.8 |
| 20260506103041 | 54 | 183 | 8.0 | 21.0 | 0.00 | 0.00 | 0.00 | 91 | 1011.7 |
| 20260506101541 | 54 | 155 | 7.0 | 21.0 | 0.00 | 0.00 | 0.00 | 91 | 1011.7 |
| 20260506100048 | 54 | 228 | 8.0 | 22.0 | 0.00 | 0.00 | 0.00 | 91 | 1011.6 |
| 20260506094546 | 54 | 202 | 6.0 | 17.0 | 0.00 | 0.00 | 0.00 | 91 | 1011.6 |
| 20260506093045 | 54 | 227 | 8.0 | 23.0 | 0.00 | 0.00 | 0.00 | 91 | 1011.4 |
| 20260506091542 | 55 | 206 | 6.0 | 26.0 | 0.00 | 0.00 | 0.00 | 90 | 1011.6 |
| 20260506090119 | 55 | 207 | 8.0 | 18.0 | 0.00 | 0.00 | 0.00 | 90 | 1011.6 |
| 20260506084545 | 55 | 225 | 7.0 | 21.0 | 0.00 | 0.00 | 0.00 | 90 | 1011.9 |
| 20260506083049 | 55 | 197 | 5.0 | 19.0 | 0.00 | 0.00 | 0.00 | 90 | 1012.0 |
| 20260506081548 | 55 | 187 | 6.0 | 23.0 | 0.00 | 0.00 | 0.00 | 90 | 1012.1 |
| 20260506073042 | 55 | 213 | 6.0 | 18.0 | 0.00 | 0.00 | 0.00 | 89 | 1012.5 |
| 20260506071542 | 55 | 229 | 5.0 | 17.0 | 0.00 | 0.00 | 0.00 | 89 | 1012.3 |
| 20260506061548 | 56 | 161 | 8.0 | 18.0 | 0.00 | 0.00 | 0.00 | 88 | 1012.1 |
| 20260506050104 | 56 | 196 | 7.0 | 21.0 | 0.00 | 0.00 | 0.00 | 88 | 1012.5 |
| 20260506044544 | 56 | 199 | 8.0 | 21.0 | 0.00 | 0.00 | 0.00 | 87 | 1012.5 |
| 20260506043045 | 56 | 180 | 10.0 | 20.0 | 0.00 | 0.00 | 0.00 | 87 | 1012.6 |
| 20260506041557 | 56 | 203 | 6.0 | 18.0 | 0.00 | 0.00 | 0.00 | 88 | 1012.6 |
| 20260506040047 | 56 | 236 | 7.0 | 18.0 | 0.00 | 0.00 | 0.00 | 88 | 1012.7 |
| 20260506034553 | 55 | 182 | 6.0 | 16.0 | 0.00 | 0.00 | 0.00 | 87 | 1013.0 |
| 20260506033047 | 55 | 244 | 4.0 | 15.0 | 0.00 | 0.00 | 0.00 | 87 | 1013.0 |
| 20260506031544 | 55 | 255 | 2.0 | 13.0 | 0.00 | 0.00 | 0.00 | 87 | 1013.0 |
| 20260506030043 | 55 | 230 | 5.0 | 17.0 | 0.00 | 0.00 | 0.00 | 87 | 1013.0 |
| 20260506024541 | 55 | 258 | 4.0 | 16.0 | 0.00 | 0.00 | 0.00 | 86 | 1013.1 |
| 20260506023049 | 56 | 271 | 2.0 | 14.0 | 0.00 | 0.00 | 0.00 | 85 | 1013.0 |
| 20260506021544 | 56 | 189 | 7.0 | 20.0 | 0.00 | 0.00 | 0.00 | 85 | 1012.8 |
| 20260506020051 | 56 | 181 | 8.0 | 17.0 | 0.00 | 0.00 | 0.00 | 84 | 1012.8 |
| 20260506014541 | 57 | 215 | 4.0 | 18.0 | 0.00 | 0.00 | 0.00 | 83 | 1012.7 |
| 20260506013051 | 57 | 198 | 6.0 | 21.0 | 0.00 | 0.00 | 0.00 | 83 | 1012.6 |
| 20260506011547 | 57 | 225 | 10.0 | 21.0 | 0.00 | 0.00 | 0.00 | 82 | 1012.3 |
| 20260506010048 | 57 | 208 | 7.0 | 27.0 | 0.00 | 0.00 | 0.00 | 82 | 1012.2 |
| 20260506004547 | 58 | 194 | 8.0 | 23.0 | 0.00 | 0.00 | 0.00 | 81 | 1012.0 |
| 20260506003041 | 58 | 205 | 9.0 | 36.0 | 0.00 | 0.00 | 0.00 | 80 | 1011.6 |
| 20260506001539 | 58 | 179 | 8.0 | 29.0 | 0.00 | 0.00 | 0.00 | 80 | 1011.6 |
| 20260506000052 | 58 | 207 | 9.0 | 25.0 | 0.00 | 0.00 | 0.00 | 80 | 1011.4 |
| 20260505234543 | 58 | 206 | 9.0 | 25.0 | 0.00 | 0.00 | 0.00 | 80 | 1011.1 |
| 20260505233046 | 58 | 59 | 10.0 | 26.0 | 0.00 | 0.00 | 0.00 | 79 | 1011.0 |
| 20260505231548 | 59 | 255 | 10.0 | 29.0 | 0.00 | 0.00 | 0.00 | 79 | 1010.7 |
| 20260505230112 | 59 | 201 | 11.0 | 28.0 | 0.00 | 0.00 | 0.00 | 78 | 1010.4 |
| 20260505224543 | 60 | 176 | 9.0 | 28.0 | 0.00 | 0.00 | 0.00 | 78 | 1010.5 |
| 20260505223051 | 60 | 167 | 8.0 | 29.0 | 0.00 | 0.00 | 0.00 | 78 | 1010.4 |
| 20260505221546 | 60 | 217 | 11.0 | 25.0 | 0.00 | 0.00 | 0.00 | 76 | 1010.3 |
| 20260505220054 | 61 | 212 | 7.0 | 23.0 | 0.00 | 0.00 | 0.00 | 75 | 1010.3 |
| 20260505214546 | 62 | 194 | 9.0 | 28.0 | 0.00 | 0.00 | 0.00 | 75 | 1010.0 |
| 20260505213043 | 62 | 173 | 12.0 | 26.0 | 0.00 | 0.00 | 0.00 | 74 | 1010.0 |
| 20260505211559 | 62 | 107 | 12.0 | 28.0 | 0.00 | 0.00 | 0.00 | 74 | 1009.7 |
| 20260505210048 | 63 | 191 | 10.0 | 28.0 | 0.00 | 0.00 | 0.00 | 72 | 1009.4 |
| 20260505204545 | 63 | 171 | 6.0 | 25.0 | 0.00 | 0.00 | 0.00 | 73 | 1009.6 |
| 20260505203044 | 63 | 177 | 10.0 | 28.0 | 0.00 | 0.00 | 0.00 | 72 | 1009.8 |
| 20260505201549 | 63 | 197 | 7.0 | 23.0 | 0.00 | 0.00 | 0.00 | 73 | 1009.8 |
| 20260505200043 | 64 | 0 | 6.0 | 22.0 | 0.00 | 0.00 | 0.00 | 73 | 1010.1 |
| 20260505194545 | 63 | 183 | 7.0 | 20.0 | 0.00 | 0.00 | 0.00 | 73 | 1010.5 |
| 20260505193052 | 63 | 0 | 9.0 | 18.0 | 0.00 | 0.00 | 0.00 | 74 | 1010.6 |
| 20260505191543 | 64 | 188 | 3.0 | 14.0 | 0.00 | 0.00 | 0.00 | 72 | 1011.2 |
| 20260505190047 | 65 | 212 | 6.0 | 16.0 | 0.00 | 0.00 | 0.00 | 73 | 1011.8 |
| 20260505184543 | 65 | 220 | 9.0 | 18.0 | 0.00 | 0.00 | 0.00 | 73 | 1011.9 |
| 20260505183043 | 64 | 207 | 7.0 | 23.0 | 0.00 | 0.00 | 0.00 | 73 | 1011.8 |
| 20260505181546 | 65 | 224 | 9.0 | 21.0 | 0.00 | 0.00 | 0.00 | 73 | 1012.1 |
| 20260505180050 | 64 | 215 | 9.0 | 19.0 | 0.00 | 0.00 | 0.00 | 73 | 1012.1 |
| 20260505174547 | 65 | 204 | 9.0 | 19.0 | 0.00 | 0.00 | 0.00 | 72 | 1012.2 |
| 20260505173043 | 65 | 239 | 4.0 | 18.0 | 0.00 | 0.00 | 0.00 | 73 | 1012.2 |